{"data":{"norad_id":62443,"epoch":"2026-05-24T22:51:23.949792Z","epoch_age_seconds":89911,"freshness":"FRESH","line1":"1 62443U 24251M   26144.95236053  .00037507  00000+0  12714-2 0  9991","line2":"2 62443  53.1595 341.1398 0000971  93.7320 266.3792 15.30216998 79464","mean_motion":15.30216998,"eccentricity":9.71e-5,"inclination_deg":53.1595,"raan_deg":341.1398,"arg_perigee_deg":93.732,"mean_anomaly_deg":266.3792,"bstar":0.0012714,"rev_number":7946,"period_min":94.104300362765,"perigee_km":474.49886136717,"apogee_km":475.82977248292,"semimajor_km":6853.301316925,"source":"CELESTRAK","updated_at":"2026-05-25T13:38:19.659335Z"}}